TimeMST,TemperatureF,Dew PointF,Humidity,Sea Level PressureIn,VisibilityMPH,Wind Direction,Wind SpeedMPH,Gust SpeedMPH,PrecipitationIn,Events,Conditions,WindDirDegrees,DateUTC
12:56 AM,60.8,24.8,25,29.83,7.0,South,5.8,-,N/A,,Mostly Cloudy,170,2014-03-07 07:56:00
1:56 AM,53.6,26.6,35,29.83,7.0,East,2.3,-,N/A,,Partly Cloudy,80,2014-03-07 08:56:00
2:56 AM,55.2,23.9,30,29.82,7.0,South,2.3,-,N/A,,Partly Cloudy,170,2014-03-07 09:56:00
3:56 AM,50.0,24.8,37,29.81,7.0,East,4.6,-,N/A,,Partly Cloudy,80,2014-03-07 10:56:00
4:56 AM,47.5,24.1,40,29.82,12.0,East,1.2,-,N/A,,Clear,100,2014-03-07 11:56:00
5:56 AM,52.9,22.1,30,29.81,11.0,ESE,4.6,-,N/A,,Clear,110,2014-03-07 12:56:00
6:56 AM,55.9,25.5,31,29.81,12.0,ESE,8.1,-,N/A,,Clear,120,2014-03-07 13:56:00
7:56 AM,57.2,25.9,30,29.83,11.0,SE,5.8,-,N/A,,Partly Cloudy,130,2014-03-07 14:56:00
8:56 AM,62.8,25.9,25,29.82,10.0,SE,8.1,-,N/A,,Clear,140,2014-03-07 15:56:00
9:56 AM,70.9,24.4,18,29.80,12.0,West,10.4,17.3,N/A,,Clear,280,2014-03-07 16:56:00
10:56 AM,71.2,25.7,18,29.78,12.0,WSW,11.5,-,N/A,,Clear,250,2014-03-07 17:56:00
11:56 AM,73.2,25.2,17,29.76,12.0,West,16.1,21.9,N/A,,Clear,260,2014-03-07 18:56:00
12:27 PM,75.2,24.8,15,29.90,12.0,West,12.7,26.5,N/A,,Clear,280,2014-03-07 19:27:00
12:36 PM,75.2,24.8,15,29.89,12.0,WSW,16.1,24.2,N/A,,Clear,240,2014-03-07 19:36:00
12:56 PM,75.6,24.3,15,29.72,12.0,WSW,17.3,33.4,N/A,,Clear,250,2014-03-07 19:56:00
1:56 PM,75.9,24.6,15,29.71,12.0,West,13.8,27.6,N/A,,Clear,260,2014-03-07 20:56:00
2:56 PM,77.0,24.6,14,29.68,12.0,West,16.1,23.0,N/A,,Clear,270,2014-03-07 21:56:00
3:56 PM,74.8,23.9,15,29.68,12.0,WNW,11.5,23.0,N/A,,Partly Cloudy,300,2014-03-07 22:56:00
4:56 PM,74.5,24.3,15,29.70,12.0,West,13.8,26.5,N/A,,Partly Cloudy,270,2014-03-07 23:56:00
5:56 PM,71.4,22.1,16,29.70,12.0,West,12.7,17.3,N/A,,Clear,280,2014-03-08 00:56:00
6:56 PM,68.7,20.5,16,29.72,12.0,NW,3.5,-,N/A,,Clear,310,2014-03-08 01:56:00
7:56 PM,68.4,18.9,15,29.75,12.0,NW,10.4,19.6,N/A,,Clear,310,2014-03-08 02:56:00
8:56 PM,66.7,21.4,18,29.76,12.0,NW,5.8,15.0,N/A,,Partly Cloudy,310,2014-03-08 03:56:00
9:56 PM,66.7,22.3,18,29.75,12.0,NW,6.9,16.1,N/A,,Mostly Cloudy,310,2014-03-08 04:56:00
10:56 PM,66.0,23.2,20,29.76,12.0,WNW,8.1,-,N/A,,Mostly Cloudy,300,2014-03-08 05:56:00
11:56 PM,63.1,24.3,23,29.78,12.0,NNW,4.6,-,N/A,,Mostly Cloudy,340,2014-03-08 06:56:00